| time (UTC) | temp F | wind direction | speed MPH | gust MPH | rain 1hr in | rain 24hr in | rain mn in | humidity % | barometer mb |
| 20260507105406 | 54 | 356 | 0.0 | 3.0 | 0.00 | 0.00 | 0.00 | 74 | 1021.9 |
| 20260507104905 | 54 | 356 | 0.0 | 3.0 | 0.00 | 0.00 | 0.00 | 74 | 1022.0 |
| 20260507103907 | 54 | 355 | 0.0 | 3.0 | 0.00 | 0.00 | 0.00 | 74 | 1021.9 |
| 20260507103353 | 54 | 343 | 2.0 | 2.0 | 0.00 | 0.00 | 0.00 | 74 | 1022.1 |
| 20260507102901 | 55 | 35 | 0.0 | 1.0 | 0.00 | 0.00 | 0.00 | 74 | 1022.0 |
| 20260507102356 | 55 | 35 | 0.0 | 2.0 | 0.00 | 0.00 | 0.00 | 74 | 1022.0 |
| 20260507101910 | 55 | 312 | 2.0 | 2.0 | 0.00 | 0.00 | 0.00 | 74 | 1022.0 |
| 20260507101408 | 55 | 312 | 0.0 | 2.0 | 0.00 | 0.00 | 0.00 | 73 | 1022.1 |
| 20260507100354 | 55 | 312 | 1.0 | 4.0 | 0.00 | 0.00 | 0.00 | 73 | 1022.1 |
| 20260507095859 | 55 | 359 | 2.0 | 4.0 | 0.00 | 0.00 | 0.00 | 73 | 1022.1 |
| 20260507094902 | 55 | 345 | 0.0 | 1.0 | 0.00 | 0.00 | 0.00 | 73 | 1022.3 |
| 20260507094401 | 55 | 345 | 0.0 | 4.0 | 0.00 | 0.00 | 0.00 | 73 | 1022.3 |
| 20260507093404 | 55 | 352 | 4.0 | 5.0 | 0.00 | 0.00 | 0.00 | 72 | 1022.4 |
| 20260507092351 | 55 | 345 | 0.0 | 6.0 | 0.00 | 0.00 | 0.00 | 72 | 1022.4 |
| 20260507091854 | 55 | 332 | 2.0 | 6.0 | 0.00 | 0.00 | 0.00 | 72 | 1022.5 |
| 20260507091411 | 55 | 336 | 0.0 | 4.0 | 0.00 | 0.00 | 0.00 | 71 | 1022.5 |
| 20260507090403 | 55 | 355 | 3.0 | 6.0 | 0.00 | 0.00 | 0.00 | 72 | 1022.5 |
| 20260507085908 | 55 | 342 | 1.0 | 6.0 | 0.00 | 0.00 | 0.00 | 72 | 1022.5 |
| 20260507085353 | 55 | 359 | 1.0 | 2.0 | 0.00 | 0.00 | 0.00 | 72 | 1022.4 |
| 20260507084857 | 55 | 359 | 0.0 | 5.0 | 0.00 | 0.00 | 0.00 | 73 | 1022.5 |
| 20260507082856 | 55 | 357 | 1.0 | 6.0 | 0.00 | 0.00 | 0.00 | 73 | 1022.5 |
| 20260507082354 | 55 | 356 | 3.0 | 6.0 | 0.00 | 0.00 | 0.00 | 73 | 1022.5 |
| 20260507081854 | 55 | 342 | 6.0 | 6.0 | 0.00 | 0.00 | 0.00 | 74 | 1022.5 |
| 20260507081400 | 55 | 58 | 0.0 | 7.0 | 0.00 | 0.00 | 0.00 | 74 | 1022.5 |
| 20260507075910 | 56 | 352 | 3.0 | 6.0 | 0.00 | 0.00 | 0.00 | 75 | 1022.5 |
| 20260507075411 | 56 | 342 | 0.0 | 6.0 | 0.00 | 0.00 | 0.00 | 75 | 1022.5 |
| 20260507074852 | 56 | 1 | 2.0 | 6.0 | 0.00 | 0.00 | 0.00 | 75 | 1022.6 |
| 20260507074358 | 56 | 357 | 4.0 | 6.0 | 0.00 | 0.00 | 0.00 | 75 | 1022.5 |
| 20260507073905 | 56 | 327 | 6.0 | 6.0 | 0.00 | 0.00 | 0.00 | 75 | 1022.5 |
| 20260507073439 | 56 | 21 | 0.0 | 5.0 | 0.00 | 0.00 | 0.00 | 75 | 1022.5 |
| 20260507072356 | 56 | 351 | 6.0 | 6.0 | 0.00 | 0.00 | 0.00 | 75 | 1022.4 |
| 20260507071854 | 56 | 338 | 0.0 | 8.0 | 0.00 | 0.00 | 0.00 | 75 | 1022.4 |
| 20260507071353 | 56 | 354 | 2.0 | 8.0 | 0.00 | 0.00 | 0.00 | 75 | 1022.4 |
| 20260507070853 | 56 | 355 | 0.0 | 8.0 | 0.00 | 0.00 | 0.00 | 75 | 1022.4 |
| 20260507070412 | 56 | 322 | 0.0 | 2.0 | 0.00 | 0.00 | 0.00 | 75 | 1022.2 |
| 20260507065856 | 56 | 358 | 1.0 | 4.0 | 0.00 | 0.00 | 0.00 | 75 | 1022.2 |
| 20260507064901 | 56 | 0 | 0.0 | 5.0 | 0.00 | 0.00 | 0.00 | 76 | 1022.3 |
| 20260507064401 | 56 | 337 | 2.0 | 5.0 | 0.00 | 0.00 | 0.00 | 76 | 1022.3 |
| 20260507063901 | 56 | 340 | 0.0 | 3.0 | 0.00 | 0.00 | 0.00 | 76 | 1022.3 |
| 20260507062903 | 56 | 351 | 2.0 | 5.0 | 0.00 | 0.00 | 0.00 | 76 | 1022.3 |
| 20260507062402 | 56 | 335 | 0.0 | 6.0 | 0.00 | 0.00 | 0.00 | 76 | 1022.4 |
| 20260507061904 | 56 | 350 | 6.0 | 6.0 | 0.00 | 0.00 | 0.00 | 76 | 1022.4 |
| 20260507061404 | 56 | 47 | 0.0 | 3.0 | 0.00 | 0.00 | 0.00 | 77 | 1022.4 |
| 20260507060359 | 56 | 323 | 3.0 | 6.0 | 0.00 | 0.00 | 0.00 | 77 | 1022.4 |
| 20260507055900 | 56 | 2 | 3.0 | 6.0 | 0.00 | 0.00 | 0.00 | 77 | 1022.4 |
| 20260507055404 | 56 | 359 | 0.0 | 6.0 | 0.00 | 0.00 | 0.00 | 77 | 1022.4 |
| 20260507054907 | 56 | 330 | 5.0 | 5.0 | 0.00 | 0.00 | 0.00 | 76 | 1022.4 |
| 20260507053855 | 57 | 9 | 0.0 | 7.0 | 0.00 | 0.00 | 0.00 | 76 | 1022.4 |
| 20260507053410 | 57 | 359 | 2.0 | 8.0 | 0.00 | 0.00 | 0.00 | 76 | 1022.4 |
| 20260507052410 | 57 | 23 | 0.0 | 6.0 | 0.00 | 0.00 | 0.00 | 76 | 1022.4 |
| 20260507051908 | 57 | 343 | 3.0 | 7.0 | 0.00 | 0.00 | 0.00 | 76 | 1022.3 |
| 20260507051354 | 57 | 345 | 3.0 | 7.0 | 0.00 | 0.00 | 0.00 | 76 | 1022.3 |
| 20260507050858 | 57 | 352 | 0.0 | 4.0 | 0.00 | 0.00 | 0.00 | 76 | 1022.2 |
| 20260507050357 | 57 | 359 | 4.0 | 5.0 | 0.00 | 0.00 | 0.00 | 75 | 1022.3 |
| 20260507044405 | 58 | 2 | 3.0 | 7.0 | 0.00 | 0.00 | 0.00 | 75 | 1022.3 |
| 20260507043853 | 58 | 0 | 0.0 | 6.0 | 0.00 | 0.00 | 0.00 | 75 | 1022.2 |
| 20260507042411 | 58 | 52 | 1.0 | 8.0 | 0.00 | 0.00 | 0.00 | 74 | 1022.2 |
| 20260507041904 | 59 | 1 | 2.0 | 8.0 | 0.00 | 0.00 | 0.00 | 74 | 1022.0 |
| 20260507040853 | 59 | 21 | 0.0 | 9.0 | 0.00 | 0.00 | 0.00 | 73 | 1021.9 |
| 20260507040355 | 59 | 350 | 1.0 | 9.0 | 0.00 | 0.00 | 0.00 | 73 | 1021.9 |
| 20260507035852 | 59 | 1 | 3.0 | 5.0 | 0.00 | 0.00 | 0.00 | 73 | 1021.8 |
| 20260507034906 | 60 | 24 | 5.0 | 7.0 | 0.00 | 0.00 | 0.00 | 73 | 1021.6 |
| 20260507033910 | 60 | 326 | 1.0 | 10.0 | 0.00 | 0.00 | 0.00 | 73 | 1021.5 |
| 20260507033351 | 60 | 346 | 5.0 | 10.0 | 0.00 | 0.00 | 0.00 | 73 | 1021.4 |
| 20260507032400 | 60 | 352 | 2.0 | 3.0 | 0.00 | 0.00 | 0.00 | 74 | 1021.3 |
| 20260507031855 | 60 | 329 | 1.0 | 4.0 | 0.00 | 0.00 | 0.00 | 74 | 1021.2 |
| 20260507031353 | 60 | 323 | 1.0 | 8.0 | 0.00 | 0.00 | 0.00 | 74 | 1021.2 |
| 20260507030855 | 60 | 320 | 2.0 | 8.0 | 0.00 | 0.00 | 0.00 | 73 | 1021.1 |
| 20260507030402 | 60 | 308 | 0.0 | 8.0 | 0.00 | 0.00 | 0.00 | 73 | 1021.0 |
| 20260507025908 | 61 | 318 | 4.0 | 8.0 | 0.00 | 0.00 | 0.00 | 73 | 1021.0 |
| 20260507025353 | 61 | 295 | 2.0 | 5.0 | 0.00 | 0.00 | 0.00 | 73 | 1020.9 |
| 20260507024407 | 61 | 303 | 0.0 | 6.0 | 0.00 | 0.00 | 0.00 | 72 | 1020.8 |
| 20260507023909 | 62 | 0 | 0.0 | 6.0 | 0.00 | 0.00 | 0.00 | 72 | 1020.8 |
| 20260507023352 | 62 | 325 | 0.0 | 7.0 | 0.00 | 0.00 | 0.00 | 72 | 1020.8 |
| 20260507022855 | 62 | 0 | 0.0 | 7.0 | 0.00 | 0.00 | 0.00 | 72 | 1020.7 |
| 20260507022357 | 62 | 339 | 0.0 | 5.0 | 0.00 | 0.00 | 0.00 | 72 | 1020.8 |
| 20260507021858 | 62 | 338 | 1.0 | 5.0 | 0.00 | 0.00 | 0.00 | 71 | 1020.8 |
| 20260507021353 | 63 | 1 | 2.0 | 5.0 | 0.00 | 0.00 | 0.00 | 70 | 1020.8 |
| 20260507020853 | 63 | 324 | 0.0 | 7.0 | 0.00 | 0.00 | 0.00 | 70 | 1020.8 |
| 20260507020355 | 63 | 290 | 0.0 | 7.0 | 0.00 | 0.00 | 0.00 | 70 | 1020.7 |
| 20260507015900 | 63 | 8 | 1.0 | 7.0 | 0.00 | 0.00 | 0.00 | 70 | 1020.8 |
| 20260507014851 | 63 | 339 | 1.0 | 8.0 | 0.00 | 0.00 | 0.00 | 70 | 1020.8 |
| 20260507014352 | 63 | 335 | 5.0 | 11.0 | 0.00 | 0.00 | 0.00 | 70 | 1020.9 |
| 20260507013408 | 64 | 336 | 4.0 | 12.0 | 0.00 | 0.00 | 0.00 | 68 | 1020.8 |
| 20260507012909 | 64 | 346 | 5.0 | 12.0 | 0.00 | 0.00 | 0.00 | 68 | 1020.8 |
| 20260507011854 | 65 | 346 | 1.0 | 10.0 | 0.00 | 0.00 | 0.00 | 68 | 1020.8 |
| 20260507011359 | 65 | 333 | 3.0 | 9.0 | 0.00 | 0.00 | 0.00 | 67 | 1020.8 |
| 20260507010855 | 66 | 358 | 3.0 | 8.0 | 0.00 | 0.00 | 0.00 | 67 | 1020.7 |
| 20260507010354 | 66 | 348 | 3.0 | 8.0 | 0.00 | 0.00 | 0.00 | 67 | 1020.8 |
| 20260507005854 | 66 | 332 | 4.0 | 8.0 | 0.00 | 0.00 | 0.00 | 67 | 1020.7 |
| 20260507005354 | 66 | 351 | 4.0 | 8.0 | 0.00 | 0.00 | 0.00 | 68 | 1020.7 |
| 20260507004406 | 67 | 0 | 2.0 | 7.0 | 0.00 | 0.00 | 0.00 | 67 | 1020.7 |
| 20260507003906 | 67 | 339 | 2.0 | 5.0 | 0.00 | 0.00 | 0.00 | 68 | 1020.7 |
| 20260507003406 | 67 | 312 | 5.0 | 9.0 | 0.00 | 0.00 | 0.00 | 68 | 1020.5 |
| 20260507002904 | 67 | 357 | 3.0 | 9.0 | 0.00 | 0.00 | 0.00 | 67 | 1020.6 |
| 20260507002400 | 68 | 342 | 2.0 | 6.0 | 0.00 | 0.00 | 0.00 | 67 | 1020.5 |
| 20260507001903 | 68 | 0 | 0.0 | 6.0 | 0.00 | 0.00 | 0.00 | 67 | 1020.5 |
| 20260507000859 | 69 | 0 | 1.0 | 6.0 | 0.00 | 0.00 | 0.00 | 65 | 1020.5 |
| 20260507000358 | 69 | 293 | 0.0 | 5.0 | 0.00 | 0.00 | 0.00 | 64 | 1020.5 |
| 20260506235857 | 70 | 318 | 4.0 | 4.0 | 0.00 | 0.00 | 0.00 | 62 | 1020.5 |
| 20260506235357 | 70 | 333 | 0.0 | 4.0 | 0.00 | 0.00 | 0.00 | 62 | 1020.5 |
| 20260506234852 | 70 | 332 | 1.0 | 4.0 | 0.00 | 0.00 | 0.00 | 63 | 1020.6 |
| 20260506234356 | 70 | 245 | 0.0 | 3.0 | 0.00 | 0.00 | 0.00 | 61 | 1020.5 |
| 20260506233903 | 71 | 236 | 1.0 | 3.0 | 0.00 | 0.00 | 0.00 | 61 | 1020.5 |
| 20260506233404 | 71 | 262 | 0.0 | 2.0 | 0.00 | 0.00 | 0.00 | 63 | 1020.5 |
| 20260506232406 | 70 | 265 | 0.0 | 2.0 | 0.00 | 0.00 | 0.00 | 64 | 1020.6 |
| 20260506231900 | 70 | 277 | 2.0 | 2.0 | 0.00 | 0.00 | 0.00 | 64 | 1020.6 |
| 20260506231402 | 70 | 322 | 1.0 | 1.0 | 0.00 | 0.00 | 0.00 | 63 | 1020.6 |
| 20260506230907 | 70 | 322 | 0.0 | 0.0 | 0.00 | 0.00 | 0.00 | 63 | 1020.7 |
| 20260506225859 | 69 | 314 | 0.0 | 2.0 | 0.00 | 0.00 | 0.00 | 64 | 1020.8 |
| 20260506224855 | 69 | 354 | 0.0 | 1.0 | 0.00 | 0.00 | 0.00 | 65 | 1021.0 |
| 20260506224353 | 68 | 353 | 0.0 | 2.0 | 0.00 | 0.00 | 0.00 | 64 | 1021.0 |
| 20260506223858 | 69 | 353 | 0.0 | 2.0 | 0.00 | 0.00 | 0.00 | 64 | 1021.1 |
| 20260506223403 | 69 | 353 | 1.0 | 1.0 | 0.00 | 0.00 | 0.00 | 64 | 1021.1 |
| 20260506222905 | 69 | 353 | 0.0 | 1.0 | 0.00 | 0.00 | 0.00 | 64 | 1021.2 |
| 20260506222407 | 69 | 353 | 0.0 | 2.0 | 0.00 | 0.00 | 0.00 | 65 | 1021.2 |
| 20260506221905 | 69 | 353 | 0.0 | 2.0 | 0.00 | 0.00 | 0.00 | 65 | 1021.1 |
| 20260506221402 | 68 | 352 | 2.0 | 2.0 | 0.00 | 0.00 | 0.00 | 68 | 1021.2 |
| 20260506220902 | 67 | 279 | 0.0 | 1.0 | 0.00 | 0.00 | 0.00 | 69 | 1021.3 |
| 20260506220407 | 67 | 279 | 0.0 | 2.0 | 0.00 | 0.00 | 0.00 | 68 | 1021.3 |
| 20260506215909 | 66 | 279 | 0.0 | 2.0 | 0.00 | 0.00 | 0.00 | 69 | 1021.3 |
| 20260506215355 | 66 | 164 | 0.0 | 3.0 | 0.00 | 0.00 | 0.00 | 69 | 1021.2 |
| 20260506214855 | 66 | 164 | 1.0 | 7.0 | 0.00 | 0.00 | 0.00 | 70 | 1021.1 |
| 20260506214354 | 66 | 164 | 4.0 | 7.0 | 0.00 | 0.00 | 0.00 | 70 | 1021.2 |
| 20260506213908 | 66 | 162 | 0.0 | 3.0 | 0.00 | 0.00 | 0.00 | 69 | 1021.2 |
| 20260506212854 | 65 | 171 | 0.0 | 1.0 | 0.00 | 0.00 | 0.00 | 70 | 1021.4 |
| 20260506212350 | 65 | 171 | 0.0 | 1.0 | 0.00 | 0.00 | 0.00 | 70 | 1021.5 |
| 20260506211357 | 65 | 171 | 1.0 | 4.0 | 0.00 | 0.00 | 0.00 | 71 | 1021.6 |
| 20260506210851 | 66 | 185 | 0.0 | 7.0 | 0.00 | 0.00 | 0.00 | 70 | 1021.7 |
| 20260506210409 | 66 | 163 | 1.0 | 7.0 | 0.00 | 0.00 | 0.00 | 71 | 1021.7 |
| 20260506205908 | 66 | 160 | 4.0 | 5.0 | 0.00 | 0.00 | 0.00 | 72 | 1021.6 |
| 20260506205409 | 65 | 158 | 1.0 | 5.0 | 0.00 | 0.00 | 0.00 | 71 | 1021.6 |
| 20260506204853 | 65 | 175 | 2.0 | 2.0 | 0.00 | 0.00 | 0.00 | 72 | 1021.6 |
| 20260506204402 | 65 | 175 | 0.0 | 2.0 | 0.00 | 0.00 | 0.00 | 71 | 1021.5 |
| 20260506203356 | 65 | 161 | 1.0 | 3.0 | 0.00 | 0.00 | 0.00 | 72 | 1021.7 |
| 20260506202352 | 64 | 165 | 1.0 | 6.0 | 0.00 | 0.00 | 0.00 | 74 | 1021.5 |
| 20260506201403 | 64 | 158 | 2.0 | 5.0 | 0.00 | 0.00 | 0.00 | 74 | 1021.7 |
| 20260506200904 | 63 | 165 | 1.0 | 5.0 | 0.00 | 0.00 | 0.00 | 74 | 1021.7 |
| 20260506200400 | 63 | 159 | 0.0 | 5.0 | 0.00 | 0.00 | 0.00 | 73 | 1021.7 |
| 20260506195356 | 63 | 221 | 2.0 | 3.0 | 0.00 | 0.00 | 0.00 | 75 | 1021.9 |
| 20260506194402 | 63 | 190 | 0.0 | 4.0 | 0.00 | 0.00 | 0.00 | 77 | 1022.1 |
| 20260506193904 | 62 | 220 | 1.0 | 4.0 | 0.00 | 0.00 | 0.00 | 76 | 1022.1 |
| 20260506193403 | 62 | 190 | 3.0 | 3.0 | 0.00 | 0.00 | 0.00 | 76 | 1022.1 |
| 20260506192901 | 62 | 174 | 1.0 | 4.0 | 0.00 | 0.00 | 0.00 | 76 | 1022.1 |
| 20260506192356 | 62 | 207 | 3.0 | 4.0 | 0.00 | 0.00 | 0.00 | 77 | 1022.0 |
| 20260506191404 | 62 | 183 | 1.0 | 4.0 | 0.00 | 0.00 | 0.00 | 77 | 1021.9 |
| 20260506190903 | 62 | 173 | 0.0 | 6.0 | 0.00 | 0.00 | 0.00 | 77 | 1021.9 |
| 20260506190406 | 62 | 172 | 0.0 | 8.0 | 0.00 | 0.00 | 0.00 | 77 | 1022.0 |
| 20260506185401 | 61 | 178 | 1.0 | 5.0 | 0.00 | 0.00 | 0.00 | 78 | 1021.9 |
| 20260506184403 | 61 | 178 | 3.0 | 5.0 | 0.00 | 0.00 | 0.00 | 78 | 1021.8 |
| 20260506183900 | 60 | 162 | 4.0 | 5.0 | 0.00 | 0.00 | 0.00 | 78 | 1021.8 |
| 20260506183404 | 60 | 194 | 3.0 | 5.0 | 0.00 | 0.00 | 0.00 | 79 | 1021.9 |
| 20260506182908 | 60 | 200 | 2.0 | 2.0 | 0.00 | 0.00 | 0.00 | 80 | 1021.9 |
| 20260506181900 | 60 | 208 | 2.0 | 2.0 | 0.00 | 0.00 | 0.00 | 81 | 1022.0 |
| 20260506180858 | 60 | 208 | 0.0 | 0.0 | 0.00 | 0.00 | 0.00 | 82 | 1022.0 |
| 20260506180401 | 59 | 208 | 0.0 | 0.0 | 0.00 | 0.00 | 0.00 | 81 | 1022.0 |
| 20260506175906 | 59 | 208 | 0.0 | 1.0 | 0.00 | 0.00 | 0.00 | 81 | 1022.0 |
| 20260506175351 | 59 | 208 | 0.0 | 1.0 | 0.00 | 0.00 | 0.00 | 82 | 1022.0 |
| 20260506174906 | 59 | 208 | 0.0 | 1.0 | 0.00 | 0.00 | 0.00 | 81 | 1022.0 |
| 20260506174405 | 59 | 208 | 0.0 | 1.0 | 0.00 | 0.00 | 0.00 | 82 | 1022.0 |
| 20260506173408 | 59 | 208 | 0.0 | 0.0 | 0.00 | 0.00 | 0.00 | 83 | 1021.8 |
| 20260506172354 | 58 | 208 | 0.0 | 0.0 | 0.00 | 0.00 | 0.00 | 83 | 1021.7 |
| 20260506171853 | 58 | 208 | 0.0 | 2.0 | 0.00 | 0.00 | 0.00 | 83 | 1021.7 |
| 20260506170854 | 58 | 254 | 2.0 | 2.0 | 0.00 | 0.00 | 0.00 | 83 | 1021.9 |
| 20260506170351 | 58 | 336 | 0.0 | 2.0 | 0.00 | 0.00 | 0.00 | 83 | 1021.8 |
| 20260506165358 | 58 | 338 | 0.0 | 2.0 | 0.00 | 0.00 | 0.00 | 82 | 1021.9 |
| 20260506164859 | 58 | 341 | 0.0 | 1.0 | 0.00 | 0.00 | 0.00 | 82 | 1021.7 |
| 20260506164401 | 58 | 341 | 1.0 | 1.0 | 0.00 | 0.00 | 0.00 | 82 | 1021.8 |
| 20260506163858 | 58 | 342 | 0.0 | 2.0 | 0.00 | 0.00 | 0.00 | 83 | 1021.7 |
| 20260506163353 | 58 | 342 | 0.0 | 2.0 | 0.00 | 0.00 | 0.00 | 82 | 1021.8 |
| 20260506162856 | 58 | 348 | 2.0 | 2.0 | 0.00 | 0.00 | 0.00 | 82 | 1021.7 |
| 20260506162357 | 58 | 359 | 0.0 | 2.0 | 0.00 | 0.00 | 0.00 | 82 | 1021.5 |
| 20260506161859 | 58 | 0 | 1.0 | 1.0 | 0.00 | 0.00 | 0.00 | 83 | 1021.5 |
| 20260506161405 | 58 | 0 | 0.0 | 1.0 | 0.00 | 0.00 | 0.00 | 82 | 1021.5 |
| 20260506160404 | 58 | 0 | 0.0 | 2.0 | 0.00 | 0.00 | 0.00 | 83 | 1021.3 |
| 20260506155901 | 58 | 0 | 0.0 | 2.0 | 0.00 | 0.00 | 0.00 | 83 | 1021.3 |
| 20260506154849 | 58 | 0 | 0.0 | 1.0 | 0.00 | 0.00 | 0.00 | 85 | 1020.9 |
| 20260506154353 | 57 | 359 | 0.0 | 1.0 | 0.00 | 0.00 | 0.00 | 85 | 1020.9 |
| 20260506153859 | 57 | 359 | 0.0 | 2.0 | 0.00 | 0.00 | 0.00 | 84 | 1021.1 |
| 20260506153357 | 57 | 359 | 0.0 | 2.0 | 0.00 | 0.00 | 0.00 | 84 | 1021.5 |
| 20260506152355 | 57 | 359 | 0.0 | 5.0 | 0.00 | 0.00 | 0.00 | 84 | 1021.7 |
| 20260506151858 | 57 | 359 | 1.0 | 5.0 | 0.00 | 0.00 | 0.00 | 84 | 1021.8 |
| 20260506151401 | 57 | 357 | 1.0 | 1.0 | 0.00 | 0.00 | 0.00 | 84 | 1021.9 |
| 20260506150354 | 57 | 8 | 1.0 | 4.0 | 0.00 | 0.00 | 0.00 | 85 | 1021.7 |
| 20260506145847 | 57 | 342 | 1.0 | 4.0 | 0.00 | 0.00 | 0.00 | 84 | 1021.7 |
| 20260506145407 | 58 | 331 | 1.0 | 4.0 | 0.00 | 0.00 | 0.00 | 84 | 1021.6 |
| 20260506144907 | 58 | 331 | 0.0 | 5.0 | 0.00 | 0.00 | 0.00 | 84 | 1021.4 |
| 20260506144406 | 58 | 309 | 4.0 | 5.0 | 0.00 | 0.00 | 0.00 | 84 | 1021.5 |
| 20260506143853 | 58 | 342 | 4.0 | 4.0 | 0.00 | 0.00 | 0.00 | 84 | 1021.4 |
| 20260506143400 | 58 | 30 | 0.0 | 0.0 | 0.00 | 0.00 | 0.00 | 84 | 1021.3 |
| 20260506142855 | 58 | 30 | 0.0 | 1.0 | 0.00 | 0.00 | 0.00 | 84 | 1021.0 |
| 20260506141910 | 58 | 51 | 0.0 | 0.0 | 0.00 | 0.00 | 0.00 | 84 | 1020.9 |
| 20260506140352 | 57 | 51 | 0.0 | 0.0 | 0.00 | 0.00 | 0.00 | 84 | 1020.8 |
| 20260506135854 | 57 | 51 | 0.0 | 0.0 | 0.00 | 0.00 | 0.00 | 84 | 1021.0 |
| 20260506135352 | 57 | 51 | 0.0 | 0.0 | 0.00 | 0.00 | 0.00 | 85 | 1020.8 |
| 20260506134909 | 57 | 51 | 0.0 | 0.0 | 0.00 | 0.00 | 0.00 | 85 | 1020.7 |
| 20260506133904 | 57 | 51 | 0.0 | 0.0 | 0.00 | 0.00 | 0.00 | 85 | 1020.6 |
| 20260506133406 | 57 | 51 | 0.0 | 0.0 | 0.00 | 0.00 | 0.00 | 85 | 1020.6 |
| 20260506132908 | 57 | 51 | 0.0 | 0.0 | 0.00 | 0.00 | 0.00 | 85 | 1020.6 |
| 20260506132407 | 57 | 51 | 0.0 | 0.0 | 0.00 | 0.00 | 0.00 | 84 | 1020.6 |
| 20260506131905 | 57 | 51 | 0.0 | 0.0 | 0.00 | 0.00 | 0.00 | 85 | 1020.5 |
| 20260506131401 | 57 | 51 | 0.0 | 0.0 | 0.00 | 0.00 | 0.00 | 84 | 1020.5 |
| 20260506130859 | 57 | 51 | 0.0 | 0.0 | 0.00 | 0.00 | 0.00 | 84 | 1020.4 |
| 20260506130402 | 57 | 51 | 0.0 | 0.0 | 0.00 | 0.00 | 0.00 | 84 | 1020.5 |
| 20260506125847 | 57 | 51 | 0.0 | 0.0 | 0.00 | 0.00 | 0.00 | 84 | 1020.4 |
| 20260506125409 | 57 | 51 | 0.0 | 0.0 | 0.00 | 0.00 | 0.00 | 84 | 1020.4 |
| 20260506124850 | 57 | 51 | 0.0 | 0.0 | 0.00 | 0.00 | 0.00 | 84 | 1020.3 |
| 20260506124406 | 57 | 51 | 0.0 | 0.0 | 0.00 | 0.00 | 0.00 | 84 | 1020.3 |
| 20260506123859 | 57 | 51 | 0.0 | 0.0 | 0.00 | 0.00 | 0.00 | 84 | 1020.2 |
| 20260506122901 | 57 | 51 | 0.0 | 2.0 | 0.00 | 0.00 | 0.00 | 84 | 1020.3 |
| 20260506122355 | 57 | 351 | 0.0 | 2.0 | 0.00 | 0.00 | 0.00 | 84 | 1020.3 |
| 20260506121404 | 57 | 351 | 1.0 | 3.0 | 0.00 | 0.00 | 0.00 | 84 | 1020.3 |
| 20260506120858 | 57 | 347 | 1.0 | 2.0 | 0.00 | 0.00 | 0.00 | 83 | 1020.3 |
| 20260506120403 | 57 | 0 | 0.0 | 0.0 | 0.00 | 0.00 | 0.00 | 83 | 1020.2 |
| 20260506115848 | 57 | 0 | 0.0 | 3.0 | 0.00 | 0.00 | 0.00 | 83 | 1020.2 |
| 20260506115352 | 57 | 0 | 0.0 | 3.0 | 0.00 | 0.00 | 0.00 | 83 | 1020.1 |
| 20260506114856 | 57 | 0 | 1.0 | 1.0 | 0.00 | 0.00 | 0.00 | 83 | 1020.0 |
| 20260506114356 | 58 | 0 | 0.0 | 1.0 | 0.00 | 0.00 | 0.00 | 83 | 1019.9 |
| 20260506113857 | 58 | 0 | 0.0 | 1.0 | 0.00 | 0.00 | 0.00 | 83 | 1019.8 |
| 20260506113353 | 58 | 0 | 1.0 | 2.0 | 0.00 | 0.00 | 0.00 | 82 | 1019.8 |
| 20260506112856 | 58 | 0 | 0.0 | 2.0 | 0.00 | 0.00 | 0.00 | 83 | 1019.9 |
| 20260506112357 | 58 | 0 | 0.0 | 0.0 | 0.00 | 0.00 | 0.00 | 82 | 1019.9 |
| 20260506111859 | 58 | 0 | 0.0 | 0.0 | 0.00 | 0.00 | 0.00 | 82 | 1019.7 |
| 20260506110902 | 58 | 0 | 0.0 | 3.0 | 0.00 | 0.00 | 0.00 | 82 | 1019.7 |
| 20260506110355 | 58 | 0 | 0.0 | 3.0 | 0.00 | 0.00 | 0.00 | 82 | 1019.6 |
| 20260506105857 | 58 | 345 | 0.0 | 3.0 | 0.00 | 0.00 | 0.00 | 82 | 1019.6 |